Regional Weather Roundup
Issued by NWS

Home | Current Version | Previous Version | Graphics & Text | Print | Product List | Glossary Off
Versions: 1 2 3 4 5 6 7 8 9 10 11 12 13 14 15 16 17 18 19 20 21 22 23 24 25 26 27 28 29 30 31 32 33 34 35 36 37 38 39 40 41 42 43 44 45 46 47 48 49 50

000
ASUS43 KDMX 281703
RWRIA

WEATHER ROUNDUP FOR IOWA
NATIONAL WEATHER SERVICE DES MOINES IA
1200 PM CDT SUN AUG 28 2016

NOTE: "FAIR" INDICATES FEW OR NO CLOUDS BELOW 12,000 FEET WITH NO
SIGNIFICANT WEATHER AND/OR OBSTRUCTIONS TO VISIBILITY.

* - THESE STATIONS ARE NOT NWS STATIONS...THUS NOT UNDER NWS
QUALITY CONTROL.  THEY ALSO DO NOT REPORT WEATHER SUCH
AS PRECIPITATION OR FOG.

IAZ001>003-012>014-020>022-031>034-043>046-281800-
   NORTHWEST IOWA

CITY           SKY/WX    TMP DP  RH WIND       PRES   REMARKS
CARROLL *      SUNNY     84  73  70 SE7       30.13F HX  91
CHEROKEE *     SUNNY     82  74  75 S9        30.12S HX  88
DENISON *      HAZE      82  73  74 S9        30.10F VSB<1/4 HX  88
LE MARS *      SUNNY     84  73  70 S12       30.10S HX  91
ORANGE CITY *  SUNNY     82  73  74 S9        30.11S HX  88
SHELDON *      SUNNY     81  75  83 SE13      30.11S HX  86
SIOUX CITY     MOSUNNY   83  72  69 SE8       30.09R HX  88
SPENCER        SUNNY     81  71  71 SE13      30.14R HX  85
STORM LAKE *   SUNNY     79  73  83 S12       30.14S HX  82
$$

IAZ055>058-069>071-079>083-090>094-281800-
   SOUTHWEST IOWA

CITY           SKY/WX    TMP DP  RH WIND       PRES   REMARKS
ATLANTIC *     PTSUNNY   84  73  70 CALM      30.13S HX  91
AUDUBON *      CLOUDY    84  75  74 SE7       30.14F HX  92
CLARINDA *       N/A     86  75  70 MISG      30.15R HX  95
COUNCIL BLFS * MOSUNNY   82  73  74 VRB5G12   30.12S HX  88
CRESTON *      SUNNY     84  75  74 S7        30.16F HX  92
HARLAN  *      MOSUNNY   82  75  78 S8        30.16S HX  89
LAMONI         SUNNY     85  75  72 VRB3      30.16R HX  93
RED OAK *      MOSUNNY   84  75  74 S6        30.12F HX  92
SHENANDOAH *   SUNNY     86 -27   1 SE6       30.12S HX  81
$$

IAZ047>049-059>061-072>074-084-281800-
   CENTRAL IOWA

CITY           SKY/WX    TMP DP  RH WIND       PRES   REMARKS
AMES           SUNNY     83  75  77 S9        30.15S HX  90
ANKENY *         N/A    N/A N/A N/A MISG        N/A
BOONE *        SUNNY     82  73  74 SE10      30.15R HX  88
CHARITON *       N/A     84  73  70 MISG      30.16S HX  91
DES MOINES     PTSUNNY   84  75  74 S8        30.14S HX  92
GRINNELL*      MOSUNNY   82  72  72 SE9       30.18S HX  86
KNOXVILLE *    SUNNY     84  73  70 SE6       30.15S HX  91
MARSHALLTOWN   MOSUNNY   82  73  74 SE12      30.16S HX  87
NEWTON *       MOSUNNY   82  77  83 S7        30.16S HX  91
PERRY *          N/A     82  76  81 SE7       30.14F HX  90
$$

IAZ004>006-015-016-023>025-035-036-281800-
   NORTH CENTRAL IOWA

CITY           SKY/WX    TMP DP  RH WIND       PRES   REMARKS
ALGONA *       MOSUNNY   81  72  74 S7        30.16S HX  84
ESTHERVILLE    MOSUNNY   78  72  81 S10       30.15R HX  80
FORT DODGE *   MOSUNNY   81  72  74 SE7       30.16S HX  84
MASON CITY     MOSUNNY   79  70  74 SE6       30.19S HX  82
FOREST CITY *    N/A    N/A N/A N/A MISG        N/A
WEBSTER CITY * SUNNY     82  73  74 SE12      30.14S HX  88
IOWA FALLS *     N/A     81  72  72 SE9       30.18F HX  85
$$

IAZ007>011-017>019-026>030-037>042-050>054-066-281800-
   NORTHEAST IOWA

CITY           SKY/WX    TMP DP  RH WIND       PRES   REMARKS
CEDAR RAPIDS   MOSUNNY   82  75  79 SE6       30.17S HX  89
CHARLES CITY * PTSUNNY   79  73  83 SE6       30.20R HX  82
CLINTON *      SUNNY     84  75  74 MISG        N/A  HX  92
DECORAH *      CLOUDY    77  70  78 SE6       30.20R
DUBUQUE        SUNNY     80  70  71 SE8       30.21S HX  83
MONTICELLO *   SUNNY     82  73  74 SE7       30.18S HX  88
OELWEIN *      MOSUNNY   79  73  83 SE9       30.20S HX  82
WATERLOO       SUNNY     80  69  69 SE10      30.16F HX  83
$$

IAZ064-065-067-068-078-281800-
   EAST CENTRAL IOWA

CITY           SKY/WX    TMP DP  RH WIND       PRES   REMARKS
DAVENPORT      MOSUNNY   84  73  69 SE5       30.19S HX  90
IOWA CITY      SUNNY     84  73  69 SE8       30.18S HX  90
MT. PLEASANT * MOSUNNY   88  75  65 CALM      30.17F HX  98
MUSCATINE *    MOSUNNY   86  75  70 S8        30.17S HX  95
QUAD CITIES    MOSUNNY   85  74  69 E5        30.17F HX  92
$$

IAZ062-063-075>077-085>089-095>099-281800-
   SOUTHEAST IOWA

CITY           SKY/WX    TMP DP  RH WIND       PRES   REMARKS
BURLINGTON     MOSUNNY   83  75  77 S5        30.17F HX  90
FAIRFIELD *    MOSUNNY   84  73  70 S7        30.16F HX  91
FORT MADISON *   N/A     84  77  79 CALM      30.18S HX  94
KEOKUK *       SUNNY     84  73  70 CALM      30.16S HX  91
OSKALOOSA *    PTSUNNY   84  76  76 SE3       30.17S HX  92
CENTERVILLE *    N/A     84  73  70 CALM      30.18S HX  91
OTTUMWA        MOSUNNY   85  73  67 SE6       30.16S HX  91
WASHINGTON *   PTSUNNY   82  75  78 SE5       30.18S HX  89
$$

ABBREVIATIONS USED IN REMARKS
   TC - TEMPERATURES IN CELSIUS
  WCI - WIND CHILL INDEX
   HX - HEAT INDEX
  VSB - VISIBILITY
$$





USA.gov is the U.S. government's official web portal to all federal, state and local government web resources and services.